Location: St Andrew
(49.4460°N, 2.5750°W)
Time: 07:32:18
(UTC+01:00)

Daily predictions for brighter satellites

Satellite Brightness Start Highest point End
(mag) Time Altitude Azimuth Time Altitude Azimuth Time Altitude Azimuth
Cosmos 1140 Rocket 3.7 21:28:09 10° NNW 21:33:14 57° ENE 21:38:19 10° SE
H-2A R/B 3.6 21:31:48 10° ESE 21:35:59 24° ENE 21:40:06 10° N
Cosmos 1939 Rocket 3.0 21:32:25 10° S 21:36:17 73° WSW 21:40:16 10° NNW
Cosmos 2184 Rocket 4.3 21:31:14 10° SSW 21:37:23 75° W 21:43:38 10° N
EO 1 Delta rocket 4.5 21:30:51 10° NNE 21:37:24 62° E 21:42:34 10° S
Cosmos 1378 Rocket 3.5 21:34:39 10° N 21:39:00 76° E 21:43:19 10° SSE
Cosmos 1908 Rocket 3.6 21:36:19 10° S 21:40:40 63° E 21:45:05 10° NNE
Cosmos 1452 Rocket 3.7 21:36:05 10° S 21:41:11 53° ESE 21:46:20 10° NNE
Cosmos 1833 Rocket 3.6 21:36:07 10° NNW 21:41:19 37° NE 21:46:30 10° ESE
Cosmos 2084 3.9 21:38:20 10° S 21:41:44 30° ESE 21:45:08 10° ENE
deb Chang Zheng 4 3.6 21:38:03 10° NNE 21:42:28 66° ESE 21:46:52 10° S
Cosmos 1733 Rocket 3.7 21:38:40 10° SSW 21:43:01 60° WNW 21:47:23 10° N
CZ-4B R/B 4.3 21:41:58 10° NE 21:46:18 29° E 21:50:30 10° SSE
Cosmos 2278 Rocket 2.6 21:41:30 10° S 21:46:51 44° ESE 21:52:13 10° NE
Coronas F rocket 4.1 21:47:25 10° SW 21:49:35 22° WNW 21:51:46 10° NNW
Cosmos 1844 Rocket 2.7 21:44:45 10° SSW 21:50:26 86° ESE 21:56:06 10° NNE
SPOT 1/Viking Rocket 3.8 21:46:00 10° SE 21:51:05 57° ENE 21:56:12 10° N
Cosmos 1844 3.7 21:45:49 10° SSW 21:51:33 69° ESE 21:57:20 10° NNE
MetOp-A 4.2 21:49:44 10° SSE 21:55:05 85° ENE 22:00:29 10° NNW
USA 245 3.5 21:52:10 10° SSE 21:55:31 54° ENE 21:59:46 10° N
USA 229 DEB 4.0 21:53:14 10° NW 22:00:19 69° NE 22:07:08 11° SE
USA 229 4.0 21:53:20 10° NW 22:00:25 68° NE 22:07:14 11° SE
Cosmos 2082 Rocket 2.5 21:56:40 10° NNW 22:02:20 59° ENE 22:07:28 12° SE
NOSS 2-2 (D) 4.4 21:59:47 10° SW 22:04:04 62° NW 22:09:18 10° NE
Cosmos 1242 Rocket 2.5 22:00:37 10° N 22:04:16 75° ENE 22:07:50 11° SSE
YAOGAN 6 2.5 22:00:54 10° SSE 22:04:24 89° ENE 22:07:58 10° NNW
Cosmos 1408 2.5 22:02:42 10° S 22:06:22 87° ESE 22:10:02 10° N
Cosmos 1825 2.2 22:05:40 10° S 22:09:29 86° W 22:13:21 10° N
Cosmos 1850 Rocket 4.1 22:04:09 10° NNW 22:09:30 84° ENE 22:14:27 12° SSE
H-2A R/B 3.2 22:06:07 10° S 22:10:09 40° W 22:14:09 10° NNW
SL-8 R/B 3.7 22:06:19 10° WSW 22:11:07 70° SSE 22:15:54 10° E
CZ-4 SHROUD 3.9 22:13:07 10° S 22:16:09 51° W 22:19:12 10° NNW
Cosmos 1238 Rocket 3.4 22:13:17 10° NNW 22:16:19 43° W 22:19:45 10° SSW
Terra 2.6 22:16:48 15° SE 22:20:24 40° ENE 22:24:50 10° N
Cosmos 2297 4.1 22:16:19 10° S 22:21:40 43° ESE 22:27:05 10° NE
PSLV R/B 4.3 22:18:54 10° S 22:21:41 38° W 22:24:30 10° NNW
IGS 5A 4.4 22:21:13 16° SE 22:24:03 35° ENE 22:27:50 10° N
Cosmos 1184 Rocket 3.1 22:20:49 10° SSW 22:24:08 70° WNW 22:27:30 10° N
SPOT 5 3.9 22:19:27 10° S 22:24:35 49° W 22:29:48 10° NNW
Cosmos 2218 Rocket 4.2 22:20:08 10° S 22:26:23 59° E 22:32:40 10° NNE
SL-08 RB Rocket 3.7 22:22:51 14° SSE 22:26:50 83° ENE 22:31:31 10° NNW
Cosmos 1812 3.6 22:24:56 10° N 22:28:31 34° ENE 22:30:42 19° SE
Gbstr 26 Del rocket 3.3 22:23:11 10° WNW 22:28:37 82° NNE 22:32:34 13° ESE
Cosmos 1741 Rocket 4.2 22:24:30 10° NNW 22:29:45 71° WSW 22:34:10 14° SSE
NOAA 11 4.3 22:24:59 12° SSE 22:30:10 83° WSW 22:35:43 10° NNW
Cosmos 1727 Rocket 4.0 22:30:45 10° N 22:36:55 69° ENE 22:41:48 17° SSE
ATLAS 2AS CENTAUR R/B 4.4 22:31:22 10° NW 22:38:44 35° NNE 22:45:59 10° E
Okean 2 Rocket 3.4 22:34:58 10° SSW 22:39:22 67° WNW 22:43:47 10° N
ISS -3.1 22:37:31 10° SW 22:40:39 45° SSE 22:43:47 10° ENE
Cosmos 1959 Rocket 4.4 22:36:38 10° S 22:42:43 76° E 22:48:49 10° NNE
ASTEX 1 4.3 22:39:48 10° NNE 22:44:16 32° E 22:46:45 21° SE
BREEZE-M DEB (TANK) 4.2 22:36:51 10° WNW 22:47:37 36° SW 22:50:20 18° S
NOSS 3-1 (C) 4.3 22:41:42 10° NW 22:48:53 62° NE 22:55:39 15° ESE
APEX 3.7 22:51:26 10° SSW 22:55:35 87° ESE 23:01:06 10° NNE
Cosmos 2369 Rocket 4.0 22:55:10 12° ESE 22:55:50 12° E 22:58:02 10° ENE
Intercosmos 25 4.0 22:54:18 10° SSW 22:57:35 43° WNW 23:00:40 10° N
BREEZE-M DEB 3.9 22:54:46 10° WSW 22:58:17 59° SSE 22:59:15 33° E
Meteor 2-8 Rocket 4.5 22:52:38 10° N 22:58:50 85° W 23:03:30 19° S
CZ-4C R/B 3.5 22:56:29 22° S 22:58:55 70° WSW 23:03:04 10° NNW
USA 234 3.7 22:55:11 10° ENE 23:01:05 35° SE 23:06:58 10° SSW
DELTA 2 DEB (DPAF) 4.4 22:58:37 20° S 23:01:37 67° WSW 23:06:05 10° NNW
Cosmos 1339 Rocket 4.4 22:55:32 10° N 23:01:42 86° E 23:06:06 21° S
SL-8 Rocket 4.3 22:57:47 10° SSW 23:04:02 68° WNW 23:10:16 10° N
Cosmos 1420 Rocket 4.5 22:59:49 10° SW 23:05:00 62° WNW 23:10:12 10° NNE
ARGOS 4.1 23:00:39 12° SSW 23:05:23 43° W 23:10:30 10° NNW
BREEZE-M DEB (TANK) 1.6 23:04:27 10° W 23:06:37 87° N 23:11:05 10° E
Meteor 1-20 Rocket 4.2 23:05:28 20° S 23:09:21 68° E 23:14:51 10° NNE
CARTOSAT-1 3.6 23:07:18 25° S 23:09:46 73° WSW 23:14:06 10° NNW
Cosmos 1486 Rocket 4.1 23:05:52 10° NNW 23:11:14 69° ENE 23:14:09 27° SE
CZ-4 R/B 4.1 23:08:01 10° N 23:12:41 66° WNW 23:17:13 10° SSW
Cosmos 1400 Rocket 4.2 23:12:57 23° ESE 23:13:40 24° E 23:16:59 10° NE
Cosmos 1536 4.3 23:13:20 20° E 23:13:54 21° E 23:16:54 10° NE
H-2A R/B 2.4 23:11:19 21° S 23:15:00 64° WSW 23:20:16 10° NNW
Cosmos 1536 Rocket 4.3 23:12:58 10° NNW 23:17:19 50° W 23:20:11 20° SSW
AVUM R/B 4.1 23:15:49 10° NW 23:19:12 43° WSW 23:20:17 32° SSW
Meteor 1-25 Rocket 4.3 23:16:41 16° SSW 23:21:28 86° W 23:27:20 10° NNE
Cosmos 1833 Rocket 3.4 23:20:03 10° NW 23:25:22 46° WSW 23:28:37 22° S
Cosmos 2278 Rocket 3.7 23:25:45 10° WSW 23:31:02 38° NW 23:36:21 10° NNE
NOSS 8 (F) 4.4 23:29:37 33° SSW 23:31:03 70° SE 23:34:57 10° NE
Okean 1 3.8 23:29:39 10° NNW 23:33:38 55° W 23:35:24 30° SSW
Cosmos 1356 3.9 23:38:31 43° ESE 23:38:44 44° E 23:42:08 10° NNE
Cosmos 1633 3.4 23:41:47 35° E 23:42:00 35° E 23:45:25 10° NNE
Cosmos 2084 Rocket 3.9 23:40:12 10° NW 23:43:58 49° NE 23:45:35 29° E
Cosmos 1809 Rocket 4.5 23:40:57 30° SSE 23:44:07 67° E 23:50:17 10° NNE
Cosmos 1302 Rocket 4.1 23:43:21 34° SSE 23:45:23 56° ESE 23:50:34 10° NNE
Cosmos 2082 Rocket 3.7 23:41:22 10° NW 23:46:03 27° WSW 23:49:19 16° SSW
Meteor 1-13 Rocket 4.5 23:44:16 10° NNW 23:50:11 71° W 23:53:15 30° S
Meteor 2-4 Rocket 3.7 23:45:02 10° N 23:50:27 69° ENE 23:52:47 35° SSE
SL-8 R/B 3.6 23:48:47 10° W 23:53:37 77° S 23:56:20 26° ESE
